Regional Weather Roundup
Issued by NWS

Home | Current Version | Previous Version | Graphics & Text | Print | Product List | Glossary Off
Versions: 1 2 3 4 5 6 7 8 9 10 11 12 13 14 15 16 17 18 19 20 21 22 23 24 25 26 27 28 29 30 31 32 33 34 35 36 37 38 39 40 41 42 43 44 45 46 47 48 49 50

000
ASUS43 KMKX 252111
RWRWI

WISCONSIN REGIONAL WEATHER ROUNDUP
NATIONAL WEATHER SERVICE MILWAUKEE/SULLIVAN WI
400 PM CDT SAT APR 25 2015

NOTE: "FAIR" INDICATES FEW OR NO CLOUDS BELOW 12,000 FEET WITH NO
SIGNIFICANT WEATHER AND/OR OBSTRUCTIONS TO VISIBILITY.

WIZ001-002-006>008-014>016-023>028-252200-
NORTHWEST WISCONSIN

CITY           SKY/WX    TMP DP  RH WIND       PRES   REMARKS
SUPERIOR ARPT  SUNNY     40  27  59 NE17G26   30.00S WCI  31
ASHLAND        SUNNY     47  26  44 N20G28    29.99S
HAYWARD        SUNNY     56  28  34 N14G22    29.90R
SIREN          MOSUNNY   61  24  24 NE12G18   29.87S
CUMBERLAND     SUNNY     59  23  25 E14G21    29.86R
RICE LAKE      SUNNY     60  18  19 SE6       29.86S
CHETEK         SUNNY     59  23  24 E14       29.85F
LADYSMITH      CLOUDY    59  21  23 NE6G17    29.87F
EAU CLAIRE     MOSUNNY   61  19  19 E16G22    29.84R
MENOMONIE      SUNNY     61  14  16 E13G21    29.85R
NEW RICHMOND   SUNNY     61  13  15 E13       29.85S
OSCEOLA        SUNNY     61  20  20 E12       29.87S
$$

WIZ003>005-009-010-017-018-252200-
NORTH CENTRAL WISCONSIN

CITY           SKY/WX    TMP DP  RH WIND       PRES   REMARKS
MANITOWISH WTR SUNNY     54  19  25 NE8G17    29.88R
ARBOR VITAE    SUNNY     57  18  21 N14G21    29.87S
WOODRUFF       SUNNY     57  18  21 N14G21    29.87S
RHINELANDER    SUNNY     55  16  21 NE9       29.87S
EAGLE RIVER    SUNNY     56   9  15 E9G18     29.87R
LAND O LAKES   SUNNY     55  13  18 E8        29.89R
PHILLIPS       MOSUNNY   56  23  27 E10G18    29.86S
TOMAHAWK       PTSUNNY   57  17  20 NE10      29.86F
MEDFORD        SUNNY     57  21  24 E10G20    29.84S
MERRILL        MOSUNNY   56  18  22 NE10G16   29.85S
$$

WIZ029-030-035-036-043>047-252200-
CENTRAL WISCONSIN

CITY           SKY/WX    TMP DP  RH WIND       PRES   REMARKS
WAUSAU         CLOUDY    57  15  19 E14G23    29.83S
MOSINEE        NOT AVBL
MARSHFIELD     MOSUNNY   58  21  24 E14       29.84S
STEVENS POINT  SUNNY     54  21  28 E13G18    29.85S
WAUPACA        SUNNY     55   8  14 E10G16    29.86S
WAUTOMA        SUNNY     55   6  14 E14G25    29.85R
WISC RAPIDS    SUNNY     56  11  16 E16G25    29.86R
CAMP DOUGLAS   CLOUDY    55  19  24 NE16G23   29.82R
$$

WIZ011>013-019>022-031-037>040-048>050-252200-
NORTHEAST WISCONSIN

CITY           SKY/WX    TMP DP  RH WIND       PRES   REMARKS
ANTIGO         CLOUDY    53  17  24 NE12G18   29.86S
SHAWANO        CLOUDY    54  21  27 E14       29.88S
OCONTO         CLOUDY    46   9  22 NE8       29.90F
STURGEON BAY   CLOUDY    45  10  24 E10       29.93S
GREEN BAY      MOSUNNY   48  21  34 NE17      29.89S
MANITOWOC      SUNNY     45  19  35 NE9G22    29.88S
APPLETON       MOSUNNY   50   7  17 NE17G23   29.87R
CLINTONVILLE   PTSUNNY   54  16  22 E14G20    29.87S
OSHKOSH        MOSUNNY   51  27  39 NE18      29.85R
$$

WIZ032>034-041-042-053>061-252200-
SOUTHWEST WISCONSIN

CITY           SKY/WX    TMP DP  RH WIND       PRES   REMARKS
LA CROSSE      CLOUDY    56  30  37 SE7       29.82S
SPARTA         CLOUDY    56  22  26 E13G21    29.83R
VIROQUA        CLOUDY    51  31  47 E13       29.81S
BOSCOBEL       CLOUDY    53  36  52 NE9G17    29.80R
PRAIRIE DU CHI CLOUDY    53  35  51 E17       29.78R
PLATTEVILLE    CLOUDY    50  39  66 NE22G29   29.76R
$$

WIZ056-057-062-063-064-067-068-252200-
SOUTH CENTRAL WISCONSIN

CITY           SKY/WX    TMP DP  RH WIND       PRES   REMARKS
REEDSBURG      CLOUDY    50  26  39 E10       29.82R
BARABOO/DELLS  CLOUDY    50  23  34 E14G21    29.82S
LONE ROCK      CLOUDY    52  32  46 E18       29.81R
MINERAL POINT  CLOUDY    50  36  57 NE18G25   29.77R
MADISON        CLOUDY    49  35  58 NE16      29.81S
MIDDLETON      CLOUDY    50  36  57 E17G23    29.81R
WATERTOWN      CLOUDY    46  34  62 NE12G22   29.81S
MONROE         CLOUDY    46  37  71 NE25G32   29.75R
JANESVILLE     CLOUDY    46  36  66 E21G26    29.76F
$$

WIZ051-052-058>065-066-070>072-252200-
SOUTHEAST WISCONSIN

CITY           SKY/WX    TMP DP  RH WIND       PRES   REMARKS
MILWAUKEE      CLOUDY    40  30  67 N22       29.83F WCI  30
WAUKESHA       CLOUDY    43  27  52 NE13G18   29.83F
MILWAUKEE/TIMM CLOUDY    41  25  52 NE12G17   29.84F
RACINE         CLOUDY    41  32  70 N16G24    29.82F
BURLINGTON     CLOUDY    42  30  63 NE16      29.79F
KENOSHA        CLOUDY    45  35  68 NE16G22   29.79F
FOND DU LAC    MOSUNNY   54  21  27 NE16      29.84S
SHEBOYGAN      MOSUNNY   47  25  42 N22       29.86S
WEST BEND      CLOUDY    45  23  42 NE14G20   29.83F
JUNEAU         CLOUDY    48  27  44 E13       29.83S
$$

LSZ147-162-252200-
LAKE SUPERIOR

STATION/POSITION TIME  TEMP    WIND        PRES    WAVE
                       AIR SEA DIR/SP/G            HT/PER
                 (UTC) (F)     (DEG/KT/KT) (MB)    (FT/S)
W MID LAKE BUOY  2050   35 35   50/ 12/ 16 1017.8F   3/ 4
DEVILS ISLAND    2100   36      50/ 17/ 18 1017.1F
PORT WING        2000   37      40/ 21/ 27 1015.9R
SAXON HARBOR     1900   37      10/  8/ 11 1015.2F
$$

LMZ867-665-643>646-252200-
LAKE MICHIGAN

STATION/POSITION TIME  TEMP    WIND        PRES    WAVE
                       AIR SEA DIR/SP/G            HT/PER
                 (UTC) (F)     (DEG/KT/KT) (MB)    (FT/S)
CHAMBERS ISLAND  2000   39      10/ 12/ 14 1013.5F
NORTHPORT PIER   2000   45      50/  9/ 15 1013.5F
SISTER BAY       2017   51     100/ 12/ 23   N/A
KEWAUNEE LAKESHO 2000   40      30/ 17/ 23 1011.4F
SHEBOYGAN LAKESH 2100   38      10/ 20/ 23 1012.1R
PORT WASHINGTON  2000   43      40/ 17/ 20 1011.5
MILWAUKEE LAKESH 2000   39      10/ 15/ 19   N/A
KENOSHA   LAKESH 2100   40      30/ 21/ 24 1008.8F
$$

TC  - TEMPERATURE IN CELSIUS
VSB - VISIBILITY IN STATUTE MILES
WCI - WIND CHILL INDEX
HX  - HEAT INDEX



USA.gov is the U.S. government's official web portal to all federal, state and local government web resources and services.